Location: Wiesbaden
(50.0830°N, 8.2500°E)
Time: 01:55:47
(UTC+01:00)

ISS - Visible Passes

Search period start: 18 February 2019 00:00
Search period end: 28 February 2019 00:00
Orbit: 403 x 411 km, 51.6° (Epoch: 18 February)

Date Brightness Start Highest point End Pass type
(mag) Time Alt. Az. Time Alt. Az. Time Alt. Az.
23 Feb -0.9 06:34:13 10° S 06:36:12 15° SE 06:38:11 10° ESE visible
25 Feb -1.9 06:26:33 10° SSW 06:29:25 28° SSE 06:32:17 10° E visible
26 Feb -1.4 05:35:43 10° S 05:38:04 18° SE 05:40:25 10° E visible
27 Feb -0.9 04:46:32 12° SE 04:46:45 12° SE 04:47:57 10° ESE visible
27 Feb -3.1 06:19:30 10° SW 06:22:41 51° SSE 06:25:54 10° ENE visible
